Regional Weather Roundup
Issued by NWS Goodland, KS

Home | Current Version | Previous Version | Graphics & Text | Print | Product List | Glossary On
Versions: 1 2 3 4 5 6 7 8 9 10 11 12 13 14 15 16 17 18 19 20 21 22 23 24 25 26 27 28 29 30 31 32 33 34 35 36 37 38 39 40 41 42 43 44 45 46 47 48 49 50
000
ASUS43 KGLD 290759
RWRGLD

GOODLAND FORECAST AREA HOURLY WEATHER ROUNDUP
NATIONAL WEATHER SERVICE GOODLAND KS
200 AM MDT FRI MAY 29 2015

...OFFICIAL OBSERVATIONS...

CITY           SKY/WX    TMP DP  RH WIND       PRES   REMARKS
GOODLAND KS    MOCLDY    52  49  89 SW6       30.04F
HILL CITY KS   CLOUDY    57  54  89 W8        29.95S
IMPERIAL NEB   CLOUDY    54  51  90 NW6       29.99F
MCCOOK NEB     CLOUDY    55  53  93 SW7       29.97F
AKRON CO       MOCLDY    50  49  96 NW9       30.09F
BURLINGTON CO  CLOUDY    54  49  83 SW7       30.06F
LIMON CO       CLOUDY    50  45  83 N12       30.13S
$$

...UNOFFICIAL OBSERVATIONS...

CITY           SKY/WX    TMP DP  RH WIND       PRES   REMARKS
COLBY KS       CLEAR     54  54 100 W6        30.02
LENORA KS        N/A     56  32  40 MISG        N/A
NORTON KS      PTCLDY    57  50  77 NW9       29.96
SHARON SPRINGS   N/A     54  52  94 MISG        N/A
KIT CARSON CO    N/A     54  50  86 MISG        N/A
$$



USA.gov is the U.S. government's official web portal to all federal, state and local government web resources and services.